Year,Month,Day,Hour,Minute,Value (Times are PST for windgust in km/hr)
2011,07,09,00,06,3.20
2011,07,09,00,07,1.60
2011,07,09,00,09,1.60
2011,07,09,00,14,1.60
2011,07,09,00,15,1.60
2011,07,09,00,17,3.20
2011,07,09,00,18,4.80
2011,07,09,00,20,3.20
2011,07,09,00,22,1.60
2011,07,09,00,24,3.20
2011,07,09,00,35,1.60
2011,07,09,00,39,1.60
2011,07,09,00,43,1.60
2011,07,09,00,44,1.60
2011,07,09,00,45,4.80
2011,07,09,00,46,6.40
2011,07,09,00,47,3.20
2011,07,09,00,48,4.80
2011,07,09,00,49,1.60
2011,07,09,00,50,1.60
2011,07,09,00,52,1.60
2011,07,09,00,53,4.80
2011,07,09,00,54,1.60
2011,07,09,00,55,1.60
2011,07,09,00,59,1.60
2011,07,09,03,14,1.60
2011,07,09,03,15,3.20
2011,07,09,03,16,1.60
2011,07,09,03,17,1.60
2011,07,09,03,18,1.60
2011,07,09,03,19,1.60
2011,07,09,05,37,1.60
2011,07,09,06,10,1.60
2011,07,09,07,06,1.60
2011,07,09,07,07,3.20
2011,07,09,07,11,3.20
2011,07,09,07,12,1.60
2011,07,09,07,13,3.20
2011,07,09,07,14,3.20
2011,07,09,07,15,4.80
2011,07,09,07,16,1.60
2011,07,09,07,18,1.60
2011,07,09,07,19,1.60
2011,07,09,07,22,1.60
2011,07,09,07,23,1.60
2011,07,09,07,57,1.60
2011,07,09,08,07,1.60
2011,07,09,08,08,1.60
2011,07,09,08,09,1.60
2011,07,09,08,15,1.60
2011,07,09,08,16,1.60
2011,07,09,08,18,1.60
2011,07,09,08,20,1.60
2011,07,09,08,21,1.60
2011,07,09,08,24,1.60
2011,07,09,08,26,3.20
2011,07,09,08,27,3.20
2011,07,09,08,28,1.60
2011,07,09,08,29,1.60
2011,07,09,08,30,6.40
2011,07,09,08,31,4.80
2011,07,09,08,32,3.20
2011,07,09,08,33,1.60
2011,07,09,08,34,6.40
2011,07,09,08,35,4.80
2011,07,09,08,36,4.80
2011,07,09,08,37,6.40
2011,07,09,08,38,4.80
2011,07,09,08,39,6.40
2011,07,09,08,40,8.10
2011,07,09,08,41,3.20
2011,07,09,08,42,6.40
2011,07,09,08,43,6.40
2011,07,09,08,44,6.40
2011,07,09,08,45,3.20
2011,07,09,08,46,4.80
2011,07,09,08,47,4.80
2011,07,09,08,48,6.40
2011,07,09,08,49,11.30
2011,07,09,08,50,8.10
2011,07,09,08,51,6.40
2011,07,09,08,52,8.10
2011,07,09,08,53,11.30
2011,07,09,08,54,14.50
2011,07,09,08,55,9.60
2011,07,09,08,56,9.60
2011,07,09,08,57,9.60
2011,07,09,08,58,16.10
2011,07,09,08,59,9.60
2011,07,09,09,00,8.10
2011,07,09,09,01,9.60
2011,07,09,09,02,11.30
2011,07,09,09,03,12.90
2011,07,09,09,04,16.10
2011,07,09,09,05,16.10
2011,07,09,09,06,14.50
2011,07,09,09,07,8.10
2011,07,09,09,08,14.50
2011,07,09,09,09,11.30
2011,07,09,09,10,8.10
2011,07,09,09,11,8.10
2011,07,09,09,12,11.30
2011,07,09,09,13,11.30
2011,07,09,09,14,11.30
2011,07,09,09,15,9.60
2011,07,09,09,16,11.30
2011,07,09,09,17,11.30
2011,07,09,09,18,9.60
2011,07,09,09,19,11.30
2011,07,09,09,20,8.10
2011,07,09,09,21,4.80
2011,07,09,09,22,19.30
2011,07,09,09,23,17.70
2011,07,09,09,24,9.60
2011,07,09,09,25,14.50
2011,07,09,09,26,16.10
2011,07,09,09,27,11.30
2011,07,09,09,28,16.10
2011,07,09,09,29,14.50
2011,07,09,09,30,11.30
2011,07,09,09,31,16.10
2011,07,09,09,32,11.30
2011,07,09,09,33,12.90
2011,07,09,09,34,9.60
2011,07,09,09,35,22.50
2011,07,09,09,36,9.60
2011,07,09,09,37,9.60
2011,07,09,09,38,12.90
2011,07,09,09,39,11.30
2011,07,09,09,40,17.70
2011,07,09,09,41,16.10
2011,07,09,09,42,11.30
2011,07,09,09,43,9.60
2011,07,09,09,44,17.70
2011,07,09,09,45,8.10
2011,07,09,09,46,9.60
2011,07,09,09,47,17.70
2011,07,09,09,48,16.10
2011,07,09,09,49,14.50
2011,07,09,09,50,16.10
2011,07,09,09,51,16.10
2011,07,09,09,52,14.50
2011,07,09,09,53,11.30
2011,07,09,09,54,14.50
2011,07,09,09,55,14.50
2011,07,09,09,56,16.10
2011,07,09,09,57,14.50
2011,07,09,09,58,17.70
2011,07,09,09,59,19.30
2011,07,09,10,00,14.50
2011,07,09,10,01,16.10
2011,07,09,10,02,11.30
2011,07,09,10,03,11.30
2011,07,09,10,04,16.10
2011,07,09,10,05,9.60
2011,07,09,10,06,9.60
2011,07,09,10,07,11.30
2011,07,09,10,08,14.50
2011,07,09,10,09,11.30
2011,07,09,10,10,11.30
2011,07,09,10,11,14.50
2011,07,09,10,12,19.30
2011,07,09,10,13,17.70
2011,07,09,10,14,11.30
2011,07,09,10,15,14.50
2011,07,09,10,16,16.10
2011,07,09,10,17,17.70
2011,07,09,10,18,14.50
2011,07,09,10,19,9.60
2011,07,09,10,20,11.30
2011,07,09,10,21,6.40
2011,07,09,10,22,8.10
2011,07,09,10,23,9.60
2011,07,09,10,24,14.50
2011,07,09,10,25,12.90
2011,07,09,10,26,14.50
2011,07,09,10,27,11.30
2011,07,09,10,28,8.10
2011,07,09,10,29,11.30
2011,07,09,10,30,6.40
2011,07,09,10,31,14.50
2011,07,09,10,32,16.10
2011,07,09,10,33,14.50
2011,07,09,10,34,14.50
2011,07,09,10,35,16.10
2011,07,09,10,36,14.50
2011,07,09,10,37,16.10
2011,07,09,10,38,11.30
2011,07,09,10,39,11.30
2011,07,09,10,40,16.10
2011,07,09,10,41,14.50
2011,07,09,10,42,14.50
2011,07,09,10,43,16.10
2011,07,09,10,44,12.90
2011,07,09,10,45,11.30
2011,07,09,10,46,20.90
2011,07,09,10,47,16.10
2011,07,09,10,48,9.60
2011,07,09,10,49,17.70
2011,07,09,10,50,11.30
2011,07,09,10,51,11.30
2011,07,09,10,52,14.50
2011,07,09,10,53,8.10
2011,07,09,10,54,9.60
2011,07,09,10,55,6.40
2011,07,09,10,56,6.40
2011,07,09,10,57,8.10
2011,07,09,10,58,8.10
2011,07,09,10,59,9.60
2011,07,09,11,00,8.10
2011,07,09,11,01,14.50
2011,07,09,11,02,9.60
2011,07,09,11,03,14.50
2011,07,09,11,04,17.70
2011,07,09,11,05,16.10
2011,07,09,11,06,20.90
2011,07,09,11,07,20.90
2011,07,09,11,08,14.50
2011,07,09,11,09,14.50
2011,07,09,11,10,17.70
2011,07,09,11,11,14.50
2011,07,09,11,12,17.70
2011,07,09,11,13,16.10
2011,07,09,11,14,12.90
2011,07,09,11,15,14.50
2011,07,09,11,16,16.10
2011,07,09,11,17,12.90
2011,07,09,11,18,17.70
2011,07,09,11,19,17.70
2011,07,09,11,20,6.40
2011,07,09,11,21,8.10
2011,07,09,11,22,20.90
2011,07,09,11,23,16.10
2011,07,09,11,24,16.10
2011,07,09,11,25,17.70
2011,07,09,11,26,16.10
2011,07,09,11,27,12.90
2011,07,09,11,28,11.30
2011,07,09,11,29,8.10
2011,07,09,11,30,11.30
2011,07,09,11,31,9.60
2011,07,09,11,32,9.60
2011,07,09,11,33,11.30
2011,07,09,11,34,8.10
2011,07,09,11,35,14.50
2011,07,09,11,36,8.10
2011,07,09,11,37,4.80
2011,07,09,11,38,11.30
2011,07,09,11,39,12.90
2011,07,09,11,40,6.40
2011,07,09,11,41,9.60
2011,07,09,11,42,14.50
2011,07,09,11,43,9.60
2011,07,09,11,44,17.70
2011,07,09,11,45,9.60
2011,07,09,11,46,6.40
2011,07,09,11,47,4.80
2011,07,09,11,48,9.60
2011,07,09,11,49,9.60
2011,07,09,11,50,8.10
2011,07,09,11,51,6.40
2011,07,09,11,52,9.60
2011,07,09,11,53,8.10
2011,07,09,11,54,9.60
2011,07,09,11,55,8.10
2011,07,09,11,56,8.10
2011,07,09,11,57,6.40
2011,07,09,11,58,14.50
2011,07,09,11,59,11.30
2011,07,09,12,00,9.60
2011,07,09,12,01,3.20
2011,07,09,12,02,6.40
2011,07,09,12,03,14.50
2011,07,09,12,04,8.10
2011,07,09,12,05,3.20
2011,07,09,12,06,8.10
2011,07,09,12,07,6.40
2011,07,09,12,08,6.40
2011,07,09,12,09,4.80
2011,07,09,12,10,8.10
2011,07,09,12,11,6.40
2011,07,09,12,12,1.60
2011,07,09,12,13,6.40
2011,07,09,12,14,6.40
2011,07,09,12,15,6.40
2011,07,09,12,16,1.60
2011,07,09,12,17,6.40
2011,07,09,12,18,11.30
2011,07,09,12,19,8.10
2011,07,09,12,20,4.80
2011,07,09,12,21,6.40
2011,07,09,12,22,8.10
2011,07,09,12,23,4.80
2011,07,09,12,24,3.20
2011,07,09,12,25,4.80
2011,07,09,12,26,8.10
2011,07,09,12,27,8.10
2011,07,09,12,28,8.10
2011,07,09,12,29,4.80
2011,07,09,12,30,3.20
2011,07,09,12,31,6.40
2011,07,09,12,32,4.80
2011,07,09,12,34,1.60
2011,07,09,12,35,8.10
2011,07,09,12,36,4.80
2011,07,09,12,37,4.80
2011,07,09,12,38,4.80
2011,07,09,12,39,3.20
2011,07,09,12,40,14.50
2011,07,09,12,41,11.30
2011,07,09,12,42,6.40
2011,07,09,12,43,4.80
2011,07,09,12,44,3.20
2011,07,09,12,45,1.60
2011,07,09,12,46,4.80
2011,07,09,12,47,6.40
2011,07,09,12,48,1.60
2011,07,09,12,49,4.80
2011,07,09,12,50,6.40
2011,07,09,12,51,8.10
2011,07,09,12,52,6.40
2011,07,09,12,53,4.80
2011,07,09,12,54,1.60
2011,07,09,12,55,8.10
2011,07,09,12,56,3.20
2011,07,09,12,57,6.40
2011,07,09,12,58,9.60
2011,07,09,12,59,8.10
2011,07,09,13,00,11.30
2011,07,09,13,01,9.60
2011,07,09,13,02,19.30
2011,07,09,13,03,17.70
2011,07,09,13,04,16.10
2011,07,09,13,05,16.10
2011,07,09,13,06,11.30
2011,07,09,13,07,16.10
2011,07,09,13,08,19.30
2011,07,09,13,09,16.10
2011,07,09,13,10,16.10
2011,07,09,13,11,9.60
2011,07,09,13,12,11.30
2011,07,09,13,13,9.60
2011,07,09,13,14,4.80
2011,07,09,13,15,14.50
2011,07,09,13,16,14.50
2011,07,09,13,17,6.40
2011,07,09,13,18,8.10
2011,07,09,13,19,8.10
2011,07,09,13,20,9.60
2011,07,09,13,21,8.10
2011,07,09,13,22,1.60
2011,07,09,13,23,4.80
2011,07,09,13,24,4.80
2011,07,09,13,25,4.80
2011,07,09,13,26,8.10
2011,07,09,13,27,6.40
2011,07,09,13,28,16.10
2011,07,09,13,29,16.10
2011,07,09,13,30,12.90
2011,07,09,13,31,9.60
2011,07,09,13,32,11.30
2011,07,09,13,33,11.30
2011,07,09,13,34,16.10
2011,07,09,13,35,25.70
2011,07,09,13,36,22.50
2011,07,09,13,37,16.10
2011,07,09,13,38,11.30
2011,07,09,13,39,16.10
2011,07,09,13,40,16.10
2011,07,09,13,41,11.30
2011,07,09,13,42,16.10
2011,07,09,13,43,14.50
2011,07,09,13,44,8.10
2011,07,09,13,45,9.60
2011,07,09,13,46,16.10
2011,07,09,13,47,22.50
2011,07,09,13,48,17.70
2011,07,09,13,49,9.60
2011,07,09,13,50,16.10
2011,07,09,13,51,14.50
2011,07,09,13,52,22.50
2011,07,09,13,53,25.70
2011,07,09,13,54,17.70
2011,07,09,13,55,14.50
2011,07,09,13,56,16.10
2011,07,09,13,57,12.90
2011,07,09,13,58,17.70
2011,07,09,13,59,16.10
2011,07,09,14,00,12.90
2011,07,09,14,01,14.50
2011,07,09,14,02,27.40
2011,07,09,14,03,20.90
2011,07,09,14,04,24.20
2011,07,09,14,05,24.20
2011,07,09,14,06,25.70
2011,07,09,14,07,17.70
2011,07,09,14,08,22.50
2011,07,09,14,09,20.90
2011,07,09,14,10,17.70
2011,07,09,14,11,20.90
2011,07,09,14,12,19.30
2011,07,09,14,13,17.70
2011,07,09,14,14,20.90
2011,07,09,14,15,19.30
2011,07,09,14,16,14.50
2011,07,09,14,17,17.70
2011,07,09,14,18,25.70
2011,07,09,14,19,17.70
2011,07,09,14,20,16.10
2011,07,09,14,21,17.70
2011,07,09,14,22,16.10
2011,07,09,14,23,17.70
2011,07,09,14,24,14.50
2011,07,09,14,25,17.70
2011,07,09,14,26,22.50
2011,07,09,14,27,19.30
2011,07,09,14,28,17.70
2011,07,09,14,29,22.50
2011,07,09,14,30,12.90
2011,07,09,14,31,14.50
2011,07,09,14,32,4.80
2011,07,09,14,33,11.30
2011,07,09,14,34,22.50
2011,07,09,14,35,16.10
2011,07,09,14,36,17.70
2011,07,09,14,37,16.10
2011,07,09,14,38,11.30
2011,07,09,14,39,8.10
2011,07,09,14,40,9.60
2011,07,09,14,41,20.90
2011,07,09,14,42,16.10
2011,07,09,14,43,24.20
2011,07,09,14,44,19.30
2011,07,09,14,45,19.30
2011,07,09,14,46,14.50
2011,07,09,14,47,11.30
2011,07,09,14,48,11.30
2011,07,09,14,49,6.40
2011,07,09,14,50,14.50
2011,07,09,14,51,17.70
2011,07,09,14,52,14.50
2011,07,09,14,53,11.30
2011,07,09,14,54,17.70
2011,07,09,14,55,17.70
2011,07,09,14,56,17.70
2011,07,09,14,57,16.10
2011,07,09,14,58,16.10
2011,07,09,14,59,17.70
2011,07,09,15,00,16.10
2011,07,09,15,01,20.90
2011,07,09,15,02,20.90
2011,07,09,15,03,19.30
2011,07,09,15,04,19.30
2011,07,09,15,05,16.10
2011,07,09,15,06,22.50
2011,07,09,15,07,19.30
2011,07,09,15,08,16.10
2011,07,09,15,09,19.30
2011,07,09,15,10,17.70
2011,07,09,15,11,16.10
2011,07,09,15,12,14.50
2011,07,09,15,13,14.50
2011,07,09,15,14,16.10
2011,07,09,15,15,14.50
2011,07,09,15,16,22.50
2011,07,09,15,17,25.70
2011,07,09,15,18,12.90
2011,07,09,15,19,8.10
2011,07,09,15,20,11.30
2011,07,09,15,21,24.20
2011,07,09,15,22,24.20
2011,07,09,15,23,9.60
2011,07,09,15,24,16.10
2011,07,09,15,25,22.50
2011,07,09,15,26,20.90
2011,07,09,15,27,17.70
2011,07,09,15,28,17.70
2011,07,09,15,29,19.30
2011,07,09,15,30,19.30
2011,07,09,15,31,16.10
2011,07,09,15,32,14.50
2011,07,09,15,33,20.90
2011,07,09,15,34,19.30
2011,07,09,15,35,16.10
2011,07,09,15,36,17.70
2011,07,09,15,37,16.10
2011,07,09,15,38,17.70
2011,07,09,15,39,16.10
2011,07,09,15,40,12.90
2011,07,09,15,41,17.70
2011,07,09,15,42,14.50
2011,07,09,15,43,16.10
2011,07,09,15,44,11.30
2011,07,09,15,45,12.90
2011,07,09,15,46,17.70
2011,07,09,15,47,11.30
2011,07,09,15,48,17.70
2011,07,09,15,49,20.90
2011,07,09,15,50,20.90
2011,07,09,15,51,17.70
2011,07,09,15,52,16.10
2011,07,09,15,53,14.50
2011,07,09,15,54,19.30
2011,07,09,15,55,20.90
2011,07,09,15,56,17.70
2011,07,09,15,57,11.30
2011,07,09,15,58,16.10
2011,07,09,15,59,12.90
2011,07,09,16,00,17.70
2011,07,09,16,01,17.70
2011,07,09,16,02,20.90
2011,07,09,16,03,19.30
2011,07,09,16,04,19.30
2011,07,09,16,05,20.90
2011,07,09,16,06,16.10
2011,07,09,16,07,29.00
2011,07,09,16,08,16.10
2011,07,09,16,09,14.50
2011,07,09,16,10,19.30
2011,07,09,16,11,19.30
2011,07,09,16,12,24.20
2011,07,09,16,13,14.50
2011,07,09,16,14,19.30
2011,07,09,16,15,16.10
2011,07,09,16,16,22.50
2011,07,09,16,17,22.50
2011,07,09,16,18,19.30
2011,07,09,16,19,19.30
2011,07,09,16,20,17.70
2011,07,09,16,21,16.10
2011,07,09,16,22,22.50
2011,07,09,16,23,19.30
2011,07,09,16,24,22.50
2011,07,09,16,25,17.70
2011,07,09,16,26,17.70
2011,07,09,16,27,19.30
2011,07,09,16,28,20.90
2011,07,09,16,29,17.70
2011,07,09,16,30,20.90
2011,07,09,16,31,17.70
2011,07,09,16,32,16.10
2011,07,09,16,33,17.70
2011,07,09,16,34,16.10
2011,07,09,16,35,22.50
2011,07,09,16,36,16.10
2011,07,09,16,37,19.30
2011,07,09,16,38,19.30
2011,07,09,16,39,20.90
2011,07,09,16,40,19.30
2011,07,09,16,41,19.30
2011,07,09,16,42,20.90
2011,07,09,16,43,20.90
2011,07,09,16,44,17.70
2011,07,09,16,45,14.50
2011,07,09,16,46,19.30
2011,07,09,16,47,17.70
2011,07,09,16,48,16.10
2011,07,09,16,49,19.30
2011,07,09,16,50,11.30
2011,07,09,16,51,22.50
2011,07,09,16,52,22.50
2011,07,09,16,53,17.70
2011,07,09,16,54,19.30
2011,07,09,16,55,20.90
2011,07,09,16,56,19.30
2011,07,09,16,57,17.70
2011,07,09,16,58,17.70
2011,07,09,16,59,14.50
2011,07,09,17,00,17.70
2011,07,09,17,01,14.50
2011,07,09,17,02,9.60
2011,07,09,17,03,16.10
2011,07,09,17,04,9.60
2011,07,09,17,05,20.90
2011,07,09,17,06,16.10
2011,07,09,17,07,20.90
2011,07,09,17,08,19.30
2011,07,09,17,09,20.90
2011,07,09,17,10,20.90
2011,07,09,17,11,22.50
2011,07,09,17,12,22.50
2011,07,09,17,13,17.70
2011,07,09,17,14,14.50
2011,07,09,17,15,20.90
2011,07,09,17,16,17.70
2011,07,09,17,17,17.70
2011,07,09,17,18,17.70
2011,07,09,17,19,17.70
2011,07,09,17,20,20.90
2011,07,09,17,21,20.90
2011,07,09,17,22,19.30
2011,07,09,17,23,14.50
2011,07,09,17,24,22.50
2011,07,09,17,25,16.10
2011,07,09,17,26,17.70
2011,07,09,17,27,19.30
2011,07,09,17,28,19.30
2011,07,09,17,29,22.50
2011,07,09,17,30,20.90
2011,07,09,17,31,20.90
2011,07,09,17,32,19.30
2011,07,09,17,33,12.90
2011,07,09,17,34,11.30
2011,07,09,17,35,16.10
2011,07,09,17,36,14.50
2011,07,09,17,37,17.70
2011,07,09,17,38,16.10
2011,07,09,17,39,19.30
2011,07,09,17,40,22.50
2011,07,09,17,41,24.20
2011,07,09,17,42,17.70
2011,07,09,17,43,11.30
2011,07,09,17,44,11.30
2011,07,09,17,45,16.10
2011,07,09,17,46,8.10
2011,07,09,17,47,16.10
2011,07,09,17,48,17.70
2011,07,09,17,49,20.90
2011,07,09,17,50,16.10
2011,07,09,17,51,16.10
2011,07,09,17,52,19.30
2011,07,09,17,53,16.10
2011,07,09,17,54,19.30
2011,07,09,17,55,19.30
2011,07,09,17,56,22.50
2011,07,09,17,57,20.90
2011,07,09,17,58,24.20
2011,07,09,17,59,24.20
2011,07,09,18,00,22.50
2011,07,09,18,01,25.70
2011,07,09,18,02,20.90
2011,07,09,18,03,22.50
2011,07,09,18,04,16.10
2011,07,09,18,05,16.10
2011,07,09,18,06,11.30
2011,07,09,18,07,17.70
2011,07,09,18,08,16.10
2011,07,09,18,09,17.70
2011,07,09,18,10,17.70
2011,07,09,18,11,17.70
2011,07,09,18,12,12.90
2011,07,09,18,13,19.30
2011,07,09,18,14,19.30
2011,07,09,18,15,17.70
2011,07,09,18,16,16.10
2011,07,09,18,17,14.50
2011,07,09,18,18,14.50
2011,07,09,18,19,17.70
2011,07,09,18,20,9.60
2011,07,09,18,21,12.90
2011,07,09,18,22,11.30
2011,07,09,18,23,8.10
2011,07,09,18,24,8.10
2011,07,09,18,25,11.30
2011,07,09,18,26,16.10
2011,07,09,18,27,14.50
2011,07,09,18,28,16.10
2011,07,09,18,29,16.10
2011,07,09,18,30,17.70
2011,07,09,18,31,20.90
2011,07,09,18,32,19.30
2011,07,09,18,33,22.50
2011,07,09,18,34,16.10
2011,07,09,18,35,19.30
2011,07,09,18,36,11.30
2011,07,09,18,37,14.50
2011,07,09,18,38,16.10
2011,07,09,18,39,16.10
2011,07,09,18,40,17.70
2011,07,09,18,41,19.30
2011,07,09,18,42,17.70
2011,07,09,18,43,19.30
2011,07,09,18,44,16.10
2011,07,09,18,45,17.70
2011,07,09,18,46,22.50
2011,07,09,18,47,17.70
2011,07,09,18,48,14.50
2011,07,09,18,49,22.50
2011,07,09,18,50,17.70
2011,07,09,18,51,17.70
2011,07,09,18,52,16.10
2011,07,09,18,53,19.30
2011,07,09,18,54,16.10
2011,07,09,18,55,16.10
2011,07,09,18,56,19.30
2011,07,09,18,57,17.70
2011,07,09,18,58,14.50
2011,07,09,18,59,17.70
2011,07,09,19,00,16.10
2011,07,09,19,01,22.50
2011,07,09,19,02,19.30
2011,07,09,19,03,14.50
2011,07,09,19,04,17.70
2011,07,09,19,05,17.70
2011,07,09,19,06,19.30
2011,07,09,19,07,14.50
2011,07,09,19,08,9.60
2011,07,09,19,09,16.10
2011,07,09,19,10,16.10
2011,07,09,19,11,20.90
2011,07,09,19,12,22.50
2011,07,09,19,13,20.90
2011,07,09,19,14,19.30
2011,07,09,19,15,14.50
2011,07,09,19,16,19.30
2011,07,09,19,17,14.50
2011,07,09,19,18,16.10
2011,07,09,19,19,17.70
2011,07,09,19,20,19.30
2011,07,09,19,21,22.50
2011,07,09,19,22,20.90
2011,07,09,19,23,19.30
2011,07,09,19,24,17.70
2011,07,09,19,25,20.90
2011,07,09,19,26,19.30
2011,07,09,19,27,17.70
2011,07,09,19,28,19.30
2011,07,09,19,29,16.10
2011,07,09,19,30,17.70
2011,07,09,19,31,16.10
2011,07,09,19,32,20.90
2011,07,09,19,33,14.50
2011,07,09,19,34,17.70
2011,07,09,19,35,24.20
2011,07,09,19,36,17.70
2011,07,09,19,37,14.50
2011,07,09,19,38,14.50
2011,07,09,19,39,17.70
2011,07,09,19,40,11.30
2011,07,09,19,41,19.30
2011,07,09,19,42,12.90
2011,07,09,19,43,14.50
2011,07,09,19,44,12.90
2011,07,09,19,45,16.10
2011,07,09,19,46,22.50
2011,07,09,19,47,17.70
2011,07,09,19,48,14.50
2011,07,09,19,49,20.90
2011,07,09,19,50,19.30
2011,07,09,19,51,17.70
2011,07,09,19,52,19.30
2011,07,09,19,53,17.70
2011,07,09,19,54,16.10
2011,07,09,19,55,16.10
2011,07,09,19,56,14.50
2011,07,09,19,57,11.30
2011,07,09,19,58,16.10
2011,07,09,19,59,16.10
2011,07,09,20,00,11.30
2011,07,09,20,01,12.90
2011,07,09,20,02,11.30
2011,07,09,20,03,22.50
2011,07,09,20,04,17.70
2011,07,09,20,05,16.10
2011,07,09,20,06,16.10
2011,07,09,20,07,27.40
2011,07,09,20,08,20.90
2011,07,09,20,09,20.90
2011,07,09,20,10,16.10
2011,07,09,20,11,14.50
2011,07,09,20,12,16.10
2011,07,09,20,13,16.10
2011,07,09,20,14,14.50
2011,07,09,20,15,19.30
2011,07,09,20,16,12.90
2011,07,09,20,17,16.10
2011,07,09,20,18,17.70
2011,07,09,20,19,17.70
2011,07,09,20,20,16.10
2011,07,09,20,21,16.10
2011,07,09,20,22,19.30
2011,07,09,20,23,14.50
2011,07,09,20,24,11.30
2011,07,09,20,25,14.50
2011,07,09,20,26,17.70
2011,07,09,20,27,19.30
2011,07,09,20,28,22.50
2011,07,09,20,29,16.10
2011,07,09,20,30,17.70
2011,07,09,20,31,20.90
2011,07,09,20,32,17.70
2011,07,09,20,33,14.50
2011,07,09,20,34,16.10
2011,07,09,20,35,11.30
2011,07,09,20,36,16.10
2011,07,09,20,37,9.60
2011,07,09,20,38,9.60
2011,07,09,20,39,16.10
2011,07,09,20,40,8.10
2011,07,09,20,41,9.60
2011,07,09,20,42,9.60
2011,07,09,20,43,16.10
2011,07,09,20,44,8.10
2011,07,09,20,45,8.10
2011,07,09,20,46,11.30
2011,07,09,20,47,14.50
2011,07,09,20,48,9.60
2011,07,09,20,49,6.40
2011,07,09,20,50,11.30
2011,07,09,20,51,14.50
2011,07,09,20,52,9.60
2011,07,09,20,53,11.30
2011,07,09,20,54,12.90
2011,07,09,20,55,6.40
2011,07,09,20,56,6.40
2011,07,09,20,57,12.90
2011,07,09,20,58,14.50
2011,07,09,20,59,9.60
2011,07,09,21,00,8.10
2011,07,09,21,01,11.30
2011,07,09,21,02,9.60
2011,07,09,21,03,11.30
2011,07,09,21,04,11.30
2011,07,09,21,05,9.60
2011,07,09,21,06,9.60
2011,07,09,21,07,9.60
2011,07,09,21,08,11.30
2011,07,09,21,09,6.40
2011,07,09,21,10,6.40
2011,07,09,21,11,11.30
2011,07,09,21,12,8.10
2011,07,09,21,13,8.10
2011,07,09,21,14,8.10
2011,07,09,21,15,4.80
2011,07,09,21,16,4.80
2011,07,09,21,17,8.10
2011,07,09,21,18,8.10
2011,07,09,21,19,9.60
2011,07,09,21,20,6.40
2011,07,09,21,21,9.60
2011,07,09,21,22,8.10
2011,07,09,21,23,8.10
2011,07,09,21,24,8.10
2011,07,09,21,25,8.10
2011,07,09,21,26,9.60
2011,07,09,21,27,14.50
2011,07,09,21,28,16.10
2011,07,09,21,29,8.10
2011,07,09,21,30,8.10
2011,07,09,21,31,11.30
2011,07,09,21,32,12.90
2011,07,09,21,33,17.70
2011,07,09,21,34,8.10
2011,07,09,21,35,14.50
2011,07,09,21,36,9.60
2011,07,09,21,37,17.70
2011,07,09,21,38,9.60
2011,07,09,21,39,14.50
2011,07,09,21,40,6.40
2011,07,09,21,41,6.40
2011,07,09,21,42,8.10
2011,07,09,21,43,9.60
2011,07,09,21,44,8.10
2011,07,09,21,45,9.60
2011,07,09,21,46,8.10
2011,07,09,21,47,6.40
2011,07,09,21,48,11.30
2011,07,09,21,49,11.30
2011,07,09,21,50,3.20
2011,07,09,21,51,3.20
2011,07,09,21,52,6.40
2011,07,09,21,53,3.20
2011,07,09,21,54,8.10
2011,07,09,21,55,1.60
2011,07,09,21,56,8.10
2011,07,09,21,57,4.80
2011,07,09,21,58,4.80
2011,07,09,21,59,3.20
2011,07,09,22,00,8.10
2011,07,09,22,01,6.40
2011,07,09,22,02,8.10
2011,07,09,22,03,6.40
2011,07,09,22,04,9.60
2011,07,09,22,05,9.60
2011,07,09,22,06,9.60
2011,07,09,22,07,8.10
2011,07,09,22,08,9.60
2011,07,09,22,09,6.40
2011,07,09,22,10,14.50
2011,07,09,22,11,16.10
2011,07,09,22,12,11.30
2011,07,09,22,13,12.90
2011,07,09,22,14,8.10
2011,07,09,22,15,11.30
2011,07,09,22,16,11.30
2011,07,09,22,17,16.10
2011,07,09,22,18,14.50
2011,07,09,22,19,14.50
2011,07,09,22,20,11.30
2011,07,09,22,21,6.40
2011,07,09,22,22,8.10
2011,07,09,22,23,14.50
2011,07,09,22,24,11.30
2011,07,09,22,25,9.60
2011,07,09,22,26,14.50
2011,07,09,22,27,9.60
2011,07,09,22,28,11.30
2011,07,09,22,29,11.30
2011,07,09,22,30,11.30
2011,07,09,22,31,9.60
2011,07,09,22,32,8.10
2011,07,09,22,33,14.50
2011,07,09,22,34,9.60
2011,07,09,22,35,9.60
2011,07,09,22,36,11.30
2011,07,09,22,37,9.60
2011,07,09,22,38,9.60
2011,07,09,22,39,6.40
2011,07,09,22,40,9.60
2011,07,09,22,41,6.40
2011,07,09,22,42,8.10
2011,07,09,22,43,9.60
2011,07,09,22,44,9.60
2011,07,09,22,45,8.10
2011,07,09,22,46,8.10
2011,07,09,22,47,4.80
2011,07,09,22,48,8.10
2011,07,09,22,49,8.10
2011,07,09,22,50,9.60
2011,07,09,22,51,8.10
2011,07,09,22,52,8.10
2011,07,09,22,53,9.60
2011,07,09,22,54,8.10
2011,07,09,22,55,8.10
2011,07,09,22,56,9.60
2011,07,09,22,57,6.40
2011,07,09,22,58,8.10
2011,07,09,22,59,8.10
2011,07,09,23,00,9.60
2011,07,09,23,01,3.20
2011,07,09,23,02,6.40
2011,07,09,23,03,8.10
2011,07,09,23,04,8.10
2011,07,09,23,05,8.10
2011,07,09,23,06,8.10
2011,07,09,23,07,6.40
2011,07,09,23,08,9.60
2011,07,09,23,09,4.80
2011,07,09,23,10,11.30
2011,07,09,23,11,9.60
2011,07,09,23,12,8.10
2011,07,09,23,13,11.30
2011,07,09,23,14,9.60
2011,07,09,23,15,4.80
2011,07,09,23,16,9.60
2011,07,09,23,17,4.80
2011,07,09,23,18,8.10
2011,07,09,23,19,9.60
2011,07,09,23,20,6.40
2011,07,09,23,21,6.40
2011,07,09,23,22,9.60
2011,07,09,23,23,9.60
2011,07,09,23,24,8.10
2011,07,09,23,25,8.10
2011,07,09,23,26,4.80
2011,07,09,23,27,4.80
2011,07,09,23,28,6.40
2011,07,09,23,29,8.10
2011,07,09,23,30,6.40
2011,07,09,23,31,11.30
2011,07,09,23,32,9.60
2011,07,09,23,33,6.40
2011,07,09,23,34,11.30
2011,07,09,23,35,9.60
2011,07,09,23,36,6.40
2011,07,09,23,37,8.10
2011,07,09,23,38,6.40
2011,07,09,23,39,4.80
2011,07,09,23,40,6.40
2011,07,09,23,41,8.10
2011,07,09,23,42,8.10
2011,07,09,23,43,6.40
2011,07,09,23,44,6.40
2011,07,09,23,45,6.40
2011,07,09,23,46,6.40
2011,07,09,23,47,4.80
2011,07,09,23,48,6.40
2011,07,09,23,49,6.40
2011,07,09,23,50,3.20
2011,07,09,23,51,6.40
2011,07,09,23,52,6.40
2011,07,09,23,53,8.10
2011,07,09,23,54,6.40
2011,07,09,23,55,4.80
2011,07,09,23,56,4.80
2011,07,09,23,57,6.40
2011,07,09,23,58,4.80
2011,07,09,23,59,4.80
